This is the latest recevied weather packets stored in our database for station/object SQ5LTL-2. If no packets are shown the sender has not sent any weather packets the latest 10 day(s).
| Time | Temp. | Humidity | Pressure | Rain* | Wind** | Luminosity | Snow |
|---|---|---|---|---|---|---|---|
| 1777894529 | 26.11° C | 23% | 1014.2 hPa | 0 mm | - | 370 W/m² | - |
| 1777894229 | 26.11° C | 24% | 1014.3 hPa | 0 mm | - | 464 W/m² | - |
| 1777893927 | 26.11° C | 24% | 1014.4 hPa | 0 mm | - | 481 W/m² | - |
| 1777893625 | 26.11° C | 24% | 1014.4 hPa | 0 mm | - | 467 W/m² | - |
| 1777893324 | 26.11° C | 23% | 1014.6 hPa | 0 mm | - | 548 W/m² | - |
| 1777893022 | 26.67° C | 24% | 1014.5 hPa | 0 mm | - | 576 W/m² | - |
| 1777892721 | 26.11° C | 24% | 1014.5 hPa | 0 mm | - | 565 W/m² | - |
| 1777892419 | 26.11° C | 24% | 1014.6 hPa | 0 mm | - | 554 W/m² | - |
| 1777892117 | 25.56° C | 24% | 1014.7 hPa | 0 mm | - | 553 W/m² | - |
| 1777891816 | 26.11° C | 24% | 1014.7 hPa | 0 mm | - | 555 W/m² | - |
| 1777891534 | 26.11° C | 25% | 1014.9 hPa | 0 mm | - | 558 W/m² | - |
| 1777891233 | 25.56° C | 24% | 1014.8 hPa | 0 mm | - | 565 W/m² | - |
| 1777890932 | 25.56° C | 23% | 1014.9 hPa | 0 mm | - | 566 W/m² | - |
| 1777890630 | 25.56° C | 22% | 1015.1 hPa | 0 mm | - | 570 W/m² | - |
| 1777890328 | 26.11° C | 22% | 1015.1 hPa | 0 mm | - | 575 W/m² | - |
| 1777890029 | 25.56° C | 21% | 1015.2 hPa | 0 mm | - | 579 W/m² | - |
| 1777889726 | 25.56° C | 23% | 1015.3 hPa | 0 mm | - | 576 W/m² | - |
| 1777889425 | 25.56° C | 23% | 1015.3 hPa | 0 mm | - | 579 W/m² | - |
| 1777889123 | 25.56° C | 23% | 1015.5 hPa | 0 mm | - | 580 W/m² | - |
| 1777888822 | 25° C | 24% | 1015.3 hPa | 0 mm | - | 577 W/m² | - |
| 1777888521 | 25° C | 24% | 1015.5 hPa | 0 mm | - | 568 W/m² | - |
| 1777888218 | 25° C | 24% | 1015.6 hPa | 0 mm | - | 526 W/m² | - |
| 1777887917 | 25° C | 24% | 1015.7 hPa | 0 mm | - | 543 W/m² | - |
| 1777887616 | 25.56° C | 24% | 1015.8 hPa | 0 mm | - | 557 W/m² | - |
| 1777887334 | 25° C | 26% | 1015.8 hPa | 0 mm | - | 558 W/m² | - |
* Rain latest hour (hover to see other rain measurements)
** Current wind speed in m/s (hover to see current wind gust speed)